Volver al catálogo

SJ-30B

ActivoCienciaVLEO
NORAD 66546·PAYLOAD·🇨🇳 China

Lanzado Nov 19, 2025 desde Jiuquan Satellite Launch Center

Loading…

Próximos Pases (próximas 24 horas)

TLE

ActualizadoSource: Space-Track

Época: Sep 14, 2026, 18:54 UTC

1 66546U 25266B   26257.78770338  .00005166  00000-0  28509-3 0  9998
2 66546  51.7956 119.6064 0006484 183.5361 176.5571 15.15522393 45443

Sigue SJ-30B en tiempo real con AllMySat

Download on the App Store